Presure
166 142 140 139 144 152 161 188 157 211 171 198 191 195 195 213 272 241 257 269 169 172 163 144 170 167 160 154 151 162 148 136 153 173 183 142 144 150 154 152 187 147 140
156 136 134 149 138 153 140 189 161 184 152 183 198 189 184 199 204 344 200 279 249 226 179 146 127 158 161 162 163 171 125 168 148 157 185 169 147 138 151 173 150 152 145
174 153 139 137 144 143 143 207 161 178 173 192 183 170 177 172 192 220 314 196 255 166 233 154 123 154 167 152 164 166 132 150 132 135 143 179 160 117 178 162 158 156 144
142 141 142 161 132 143 141 160 151 159 168 192 170 165 184 172 175 205 274 272 189 235 246 208 136 150 155 140 148 166 144 146 157 136 163 186 192 186 144 186 171 141 163
127 161 135 140 127 153 137 144 159 144 187 173 167 170 171 160 170 183 200 211 237 254 206 216 159 188 187 181 136 164 190 139 161 180 170 129 188 192 164 184 144 161 178
136 168 139 168 151 138 144 132 152 182 172 149 141 152 164 167 159 172 190 200 181 200 290 249 245 207 125 169 176 164 128 184 169 181 112 145 189 177 154 167 191 156 208
226 231 188 226 164 143 140 143 154 166 161 143 143 152 150 150 163 167 181 181 204 183 271 265 247 181 180 140 135 177 130 171 134 178 130 152 174 124 126 121 180 175 159
197 194 211 228 146 151 156 144 140 157 140 168 153 147 156 156 157 167 170 182 190 209 181 197 208 211 191 190 195 193 129 146 180 147 175 184 162 185 133 147 129 153 149
219 214 180 213 238 163 144 150 169 141 174 154 153 181 159 183 159 159 179 189 195 210 171 216 178 183 181 172 183 134 175 128 184 142 201 129 137 190 135 133 134 157 143
224 206 169 243 229 186 151 154 144 166 152 192 173 163 169 149 153 160 171 183 203 192 187 183 212 187 198 134 186 146 166 205 192 149 208 131 185 130 171 134 130 146 130
180 201 236 248 226 247 233 272 185 164 153 177 212 150 179 175 167 174 172 174 185 198 199 200 201 204 180 192 169 193 212 140 173 149 178 209 135 183 146 143 138 133 127
185 178 124 293 282 270 246 265 242 151 163 167 110 189 178 173 168 182 197 179 183 206 194 195 201 202 187 190 166 141 181 178 139 166 135 189 164 208 141 133 157 143 135
193 193 180 265 280 280 277 250 263 219 162 158 180 164 191 149 150 177 177 195 203 218 229 197 219 205 187 200 160 187 184 171 158 152 193 186 203 194 191 141 140 150 129
175 197 133 176 255 268 272 224 249 215 172 108 170 164 193 194 167 184 202 198 205 151 228 194 201 206 196 225 173 160 185 153 189 189 184 187 194 221 149 199 140 178 137
210 198 171 185 141 267 253 264 270 227 194 149 141 124 156 206 163 181 189 205 212 213 159 184 193 182 197 198 196 190 186 188 198 190 193 185 156 151 212 116 141 134 175
212 200 201 185 192 272 276 253 258 221 229 214 193 168 159 182 155 195 178 142 193 164 203 217 203 202 191 186 190 162 178 177 194 147 184 195 177 201 222 172 196 148 135
180 181 187 191 182 236 149 257 267 129 207 255 259 173 169 168 181 199 197 195 154 184 206 159 197 213 216 227 215 198 205 200 168 193 152 194 187 187 195 175 140 143 152
197 236 205 239 234 229 227 229 254 241 263 233 243 196 177 158 173 172 196 200 183 186 191 199 176 194 217 225 238 252 203 205 195 179 191 194 178 189 185 170 172 135 140
224 221 221 228 230 225 234 230 238 229 250 258 194 185 179 179 169 169 191 177 150 149 156 207 188 199 168 225 227 244 241 196 201 199 205 199 181 175 183 154 203 144 152
227 225 225 222 224 226 227 231 235 234 225 247 250 242 194 178 178 174 198 158 175 166 159 124 127 193 193 198 195 213 253 251 224 198 190 189 168 130 168 212 202 126 168
229 229 228 223 226 225 230 225 225 246 228 249 252 248 189 183 185 181 175 175 155 158 176 174 158 126 132 188 191 171 206 255 299 157 167 162 148 217 231 225 201 239 204
240 230 230 231 232 232 238 235 238 244 250 262 234 227 254 202 181 181 178 175 178 174 164 171 142 124 200 189 135 178 207 199 223 254 244 178 150 238 241 248 246 241 242
248 243 239 238 240 240 242 248 251 245 249 249 250 244 247 264 261 213 191 188 177 200 173 174 159 166 135 175 143 162 151 173 200 203 203 218 237 234 235 246 257 333 247
217 226 244 247 245 244 250 251 240 236 236 241 242 241 253 224 268 234 236 219 191 198 201 178 179 182 173 158 144 196 149 159 210 198 193 188 198 193 234 224 202 246 190
243 227 229 232 236 241 236 229 227 226 222 227 233 245 244 220 256 228 277 271 206 194 183 178 183 187 167 177 173 152 172 149 160 174 176 190 193 200 194 241 234 184 166
249 249 240 240 241 240 221 214 216 221 225 234 241 264 267 270 271 248 252 234 271 260 205 195 195 205 197 146 186 181 179 173 173 169 203 189 215 211 186 193 241 232 234
Wind_Speed
13 8 7 10 11 11 11 8 10 9 9 14 8 19 20 28 13 18 27 35 19 25 21 10 25 22 17 1 3 16 8 12 13 16 15 9 13 14 15 18 12 18 19
12 9 7 5 12 10 9 5 10 7 10 5 15 16 20 35 25 21 14 28 39 42 37 11 5 18 21 18 9 24 4 16 9 7 15 7 10 12 12 12 14 15 20
24 9 8 10 11 14 9 3 9 5 3 12 9 12 25 9 24 30 16 16 29 17 38 18 9 12 25 5 12 22 6 4 7 7 6 9 5 12 14 10 10 11 17
5 9 11 20 15 14 16 6 13 9 5 21 7 6 33 23 21 21 17 14 18 29 34 36 14 13 14 8 9 16 6 4 6 5 8 13 12 9 9 11 6 13 8
13 26 11 17 16 15 19 20 11 9 18 18 17 19 28 15 21 28 22 16 15 24 25 31 24 32 33 25 10 13 23 7 5 13 11 8 11 16 6 9 10 5 7
12 30 12 21 20 25 24 20 15 23 4 8 7 21 28 29 18 30 24 24 20 19 19 29 35 40 13 21 23 16 8 26 14 16 3 1 12 6 2 3 12 3 17
29 27 27 26 21 23 31 25 15 15 21 28 34 16 23 16 26 25 24 25 26 21 19 23 33 29 28 19 16 23 12 22 8 13 6 5 8 4 4 6 5 4 4
20 27 28 27 27 24 28 32 26 26 25 26 28 30 27 24 22 29 24 23 26 27 20 15 21 32 28 24 23 26 14 14 19 10 18 15 6 18 2 2 6 7 7
29 25 27 30 30 27 34 32 35 31 28 36 36 30 38 42 32 29 34 26 27 22 23 23 21 21 20 20 21 20 24 15 21 12 20 10 9 20 5 2 5 3 7
26 32 29 30 33 32 32 37 41 42 44 41 48 48 49 37 41 34 24 25 29 23 28 26 25 26 29 26 23 24 24 28 23 17 25 15 18 8 15 5 6 3 11
30 29 31 30 35 35 36 35 55 51 37 45 49 41 56 61 45 48 31 30 32 30 29 29 30 30 29 26 30 27 29 23 22 23 17 24 15 24 13 12 8 6 9
34 34 45 34 30 33 41 38 52 52 60 60 10 63 60 48 39 46 60 39 37 39 31 32 33 33 33 31 31 16 28 24 27 23 22 21 20 28 16 12 16 9 8
37 36 38 33 31 32 34 44 39 58 60 56 60 55 63 34 31 46 45 49 43 37 33 29 38 31 36 31 29 31 31 26 27 27 26 26 28 31 29 17 15 16 10
40 40 20 41 35 33 36 50 47 55 64 25 62 59 60 68 50 53 52 47 42 33 30 34 31 33 29 36 32 34 35 34 34 28 30 31 27 42 23 31 18 25 12
38 42 47 45 48 38 40 41 40 47 72 46 36 39 51 62 40 52 48 45 42 35 34 42 38 38 34 33 33 36 35 32 33 30 35 32 22 26 36 15 21 14 23
46 44 46 50 46 37 35 44 45 53 52 67 79 71 56 65 43 60 48 24 42 20 36 34 40 37 41 40 40 37 39 34 33 25 30 36 29 27 37 28 36 23 13
54 51 52 53 52 49 26 42 43 41 49 53 56 77 73 58 63 63 56 47 31 53 41 41 27 32 33 36 42 43 42 40 35 33 36 38 36 34 30 35 28 25 31
62 55 58 52 51 52 55 56 48 55 50 62 61 82 79 51 64 53 57 55 54 50 42 37 38 30 35 38 41 41 42 44 42 40 39 41 38 37 36 32 34 22 21
58 59 58 56 56 55 57 61 59 62 56 56 83 83 85 79 64 55 62 56 40 37 34 43 44 34 33 33 33 38 40 42 42 43 43 45 43 41 39 31 44 31 31
57 59 59 60 60 60 60 62 64 65 69 65 63 66 86 80 77 69 72 51 63 51 40 31 27 44 40 33 37 29 39 41 42 41 43 45 41 29 39 49 48 23 36
58 59 60 63 64 65 64 66 68 65 70 66 66 68 94 92 89 81 72 71 55 43 55 52 40 37 34 48 43 45 29 39 39 45 45 43 41 51 51 49 47 47 48
60 61 61 62 63 63 63 64 65 65 64 57 73 75 67 85 87 86 81 75 73 66 53 54 50 46 52 52 34 38 33 33 34 38 43 44 47 46 45 46 49 51 56
61 62 63 63 62 61 61 60 59 60 61 63 62 68 68 66 72 91 94 91 79 88 67 64 45 48 50 50 44 46 37 38 35 32 30 34 35 36 35 36 42 53 56
62 62 62 63 62 61 60 59 60 62 63 62 66 67 62 81 67 84 88 91 93 90 94 72 73 71 62 50 52 55 45 42 43 39 42 45 35 39 34 36 40 36 43
59 63 63 64 64 62 62 63 64 66 69 69 71 67 69 80 66 83 70 72 95 94 92 80 86 83 57 67 61 54 60 49 48 46 50 44 43 41 40 37 39 43 48
60 60 61 61 62 64 69 71 71 71 71 69 68 61 60 57 58 72 72 84 75 79 96 97 100 94 87 64 80 70 67 65 63 54 54 52 48 43 49 43 37 42 46
Wind_Direction
306 296 302 331 329 334 337 358 333 16 347 50 40 52 40 18 264 267 248 233 235 245 257 217 262 260 284 260 318 299 59 109 12 347 2 64 61 58 55 54 64 45 65
286 267 283 314 316 309 330 18 314 34 310 32 46 53 38 17 10 221 272 231 239 239 252 230 196 261 274 279 267 284 114 322 12 29 342 26 52 48 56 68 53 46 49
296 291 307 319 300 304 308 118 298 62 318 35 31 27 14 8 354 353 232 277 242 229 236 230 219 262 267 236 262 281 149 75 104 90 46 355 47 52 31 70 65 56 55
255 301 303 284 292 289 296 255 288 290 339 28 352 20 333 350 352 350 324 260 275 249 238 233 216 241 252 224 233 280 181 191 310 117 346 323 329 7 45 17 47 53 48
271 292 286 281 288 277 275 281 282 285 37 2 352 349 358 355 327 342 324 329 302 262 262 235 225 234 240 243 194 271 253 181 315 287 306 86 319 330 26 16 38 48 22
265 271 270 261 260 272 268 263 278 94 42 14 276 315 317 319 307 327 321 309 286 282 234 242 224 222 222 259 261 265 189 261 284 280 156 162 304 314 91 25 11 36 358
259 243 248 250 249 252 266 264 248 167 152 216 227 253 256 238 289 298 317 310 289 277 250 235 226 236 221 233 215 252 203 263 188 247 227 223 306 106 59 48 354 4 63
248 249 238 245 243 237 243 260 246 230 265 205 243 250 225 250 252 283 281 287 297 279 259 255 228 224 233 243 247 246 211 226 249 223 256 255 214 290 223 316 12 357 36
256 244 256 257 246 214 247 248 229 259 226 225 224 251 227 243 243 237 271 268 275 255 234 247 236 233 232 234 241 218 248 218 254 223 254 221 218 267 218 288 339 286 9
248 252 245 250 244 228 226 245 257 233 261 210 211 230 234 235 252 234 250 281 279 237 231 229 234 242 242 228 223 228 240 246 244 221 261 231 251 252 263 244 325 248 351
253 256 264 265 245 237 227 239 206 232 218 227 212 253 233 237 239 245 250 243 262 249 249 235 220 215 222 224 224 228 229 220 232 217 246 249 229 263 237 285 251 295 330
259 259 246 279 275 258 234 238 217 245 244 241 3 219 233 247 247 245 254 250 249 256 234 242 236 222 210 214 226 249 229 234 234 232 230 251 232 241 237 258 253 242 279
261 260 260 277 275 268 263 236 239 221 245 257 231 256 233 269 248 246 250 249 260 253 245 234 251 240 219 226 237 226 237 227 224 234 248 248 258 245 251 252 253 258 295
258 254 240 260 264 266 263 234 235 232 239 225 247 258 232 232 247 246 246 245 248 270 241 230 231 243 231 240 230 226 232 238 239 242 246 246 238 232 241 244 260 248 265
260 256 257 252 251 265 257 259 253 246 226 251 252 251 266 233 233 247 245 240 243 237 249 231 232 232 236 229 231 227 227 233 244 244 245 247 252 250 234 282 265 284 259
267 258 258 253 251 262 261 257 256 243 249 234 225 250 266 246 263 238 251 233 220 222 228 245 237 245 233 231 230 241 222 241 240 266 250 239 245 236 240 256 241 266 292
262 257 257 258 255 259 235 255 258 274 247 245 240 245 255 263 254 238 236 235 236 232 227 264 221 243 251 253 246 240 238 235 242 236 253 237 239 241 237 241 279 285 273
268 265 265 261 257 256 256 254 258 252 256 241 242 231 247 261 258 258 238 231 234 238 232 221 247 233 250 255 258 258 240 238 237 231 231 237 244 240 242 256 259 286 260
261 263 263 261 258 256 255 253 256 252 255 254 234 244 243 246 254 250 240 247 263 258 252 231 236 224 251 248 250 259 251 243 243 244 240 237 236 240 242 256 256 273 270
258 257 257 258 257 256 255 255 256 256 252 254 250 240 242 249 249 254 238 259 255 259 248 240 234 238 228 220 228 236 260 256 251 243 247 247 253 269 254 253 253 263 259
258 257 253 253 253 254 254 254 254 258 254 257 257 247 238 244 243 246 253 255 246 254 259 260 265 234 239 240 237 254 241 257 259 256 246 248 254 244 244 246 256 248 255
258 257 257 255 254 254 256 255 256 257 257 257 256 247 247 246 251 248 251 255 256 255 255 262 244 239 243 247 242 248 248 243 244 237 237 252 257 245 249 252 249 243 236
263 263 263 262 261 259 259 260 258 255 255 255 253 252 252 251 248 244 248 248 255 249 258 255 243 252 238 247 248 252 263 259 244 246 251 245 244 247 248 246 247 242 233
263 263 265 265 264 263 262 260 254 252 252 253 254 253 251 248 250 245 243 243 249 248 250 256 256 257 255 249 241 249 257 268 247 248 251 250 257 253 248 255 253 242 251
262 259 261 262 263 262 259 256 253 252 250 251 253 254 254 253 248 250 249 250 247 249 253 259 259 254 247 254 255 248 264 251 266 265 265 257 260 266 262 247 242 259 252
273 270 264 263 262 261 257 256 255 254 254 256 256 259 257 252 247 250 249 249 245 245 248 251 255 254 255 241 255 256 253 254 256 261 257 257 261 261 266 269 250 246 240